Weather Roundup
Issued by NWS Chicago, IL

Home | Current Version | Previous Version | Graphics & Text | Print | Product List | Glossary Off
Versions: 1 2 3 4 5 6 7 8 9 10 11 12 13 14 15 16 17 18 19 20 21 22 23 24 25 26 27 28 29 30 31 32 33 34 35 36 37 38 39 40 41 42 43 44 45 46 47 48 49 50

000
NZUS59 KLOT 171108
HRRLOT

CHICAGO AREA WEATHER ROUNDUP
NATIONAL WEATHER SERVICE CHICAGO/ROMEOVILLE IL
500 AM CST SUN DEC 17 2017

NOTE: "FAIR" INDICATES FEW OR NO CLOUDS BELOW 12,000 FEET WITH NO
SIGNIFICANT WEATHER AND/OR OBSTRUCTIONS TO VISIBILITY.

* THESE STATIONS ARE NOT UNDER NWS QUALITY CONTROL. THEY ALSO MAY NOT
  REPORT WEATHER SUCH AS PRECIPITATION OR FOG.

ILZ005-006-012>014-019>023-171200-
NORTHEAST ILLINOIS

CITY           SKY/WX    TMP DP  RH WIND       PRES   REMARKS
OHARE          CLOUDY    33  30  88 N6        30.06R FOG     WCI  28
MIDWAY         CLOUDY    36  34  92 N5        30.06R
AURORA         CLOUDY    33  32  96 NE9       30.05F FOG     WCI  25
LANSING*       CLOUDY    27  25  95 CALM      30.07R
JOLIET*        CLOUDY    29  28  96 CALM      30.06S FOG
WAUKEGAN       CLOUDY    35  32  88 NE8       30.08S FOG     WCI  29
DUPAGE AIRPORT CLOUDY    33  33 100 NE8       30.05S FOG     WCI  26
WHEELING       CLOUDY    37  35  92 NE5       30.09R
KANKAKEE*      CLOUDY    30  26  86 E3        30.07R
MORRIS*        CLOUDY    29  26  89 CALM      30.04F
LEWIS AIRPORT* CLOUDY    32  32  99 E3        30.05F FOG
NORTHERLY ISL    N/A     36  34  92 MISG        N/A
$$

WIZ051-052-058>065-066-070>072-171200-
SOUTHEAST WISCONSIN

CITY           SKY/WX    TMP DP  RH WIND       PRES   REMARKS
MILWAUKEE      CLOUDY    35  31  85 E9        30.11R WCI  28
KENOSHA*       CLOUDY    35  31  85 E8        30.10R WCI  29
RACINE*        CLOUDY    34  31  88 E8        30.12R WCI  27
BURLINGTON     CLOUDY    50  50 100 E7        30.09S
WAUKESHA       CLOUDY    30  28  93 E5        30.11R WCI  25
WEST BEND      CLOUDY    32  30  93 E7        30.11R WCI  26
$$

INZ001>003-010>013-019-020-171200-
NORTHWEST INDIANA

CITY           SKY/WX    TMP DP  RH WIND       PRES   REMARKS
GARY*          PTCLDY    30  27  86 CALM      30.08R
MICHIGAN CITY* NOT AVBL
RENSSELAER*    NOT AVBL
VALPARAISO     CLOUDY    29  26  89 NE5       30.07R WCI  24
$$

LMZ740>746-171200-
SOUTHERN LAKE MICHIGAN

STATION/POSITION TIME  SKY/WX   TEMP WIND        PRES    VSBY
                                AIR  DIR/SP/G
                 (UTC)          (F)  (DEG/KT/KT) (MB)    (MI)
HARRISON CRIB    1040            39   30/  7/  7   N/A
BURNHAM HARBOR   1100            36  360/  5/  7   N/A
CALUMET HARBOR   1048            34   30/  2/  3 1017.4R
BURNS HARBOR     1040            36   CALM  /  3 1018.6S
MICHIGAN CITY    1040            31  130/  7/  8   N/A
$$

ABBREVIATIONS USED IN REMARKS
   TC - TEMPERATURE IN CELSIUS
  WCI - WIND CHILL INDEX
   HX - HEAT INDEX
  VSB - VISIBILITY
$$



USA.gov is the U.S. government's official web portal to all federal, state and local government web resources and services.